GTI595 KJFK-KMIA

Flight info

Callsign GTI595
Flight time N/A
Altitude 34000
Route WAVEY EMJAY Q167 KALDA Q101 SKARP Y313 HOAGG BNFSH2
Aircraft B744/H-SDE3FGHIM1M2RWXY/LB1

Departure

Time 2026-05-06 23:15
Airport John F. Kennedy International Airport (KJFK)

Arrival

Time N/A
Airport Miami International Airport (KMIA)
Time Latitude Longitude Altitude Speed Heading
2026-05-06 22:46 40.66124 -73.78545 24 ft 0 kts 30°
2026-05-06 23:02 40.66115 -73.78552 24 ft 2 kts 22°
2026-05-06 23:02 40.66100 -73.78557 24 ft 2 kts
2026-05-06 23:02 40.66085 -73.78558 24 ft 2 kts 357°
2026-05-06 23:03 40.66071 -73.78556 24 ft 2 kts 345°
2026-05-06 23:03 40.66056 -73.78549 24 ft 2 kts 333°
2026-05-06 23:03 40.66044 -73.78539 24 ft 2 kts 321°
2026-05-06 23:03 40.66033 -73.78526 24 ft 2 kts 309°
2026-05-06 23:04 40.66024 -73.78509 24 ft 2 kts 298°
2026-05-06 23:04 40.66018 -73.78491 24 ft 2 kts 298°
2026-05-06 23:04 40.66013 -73.78480 24 ft 0 kts 300°
2026-05-06 23:07 40.66016 -73.78487 24 ft 3 kts 298°
2026-05-06 23:08 40.66017 -73.78565 24 ft 12 kts 233°
2026-05-06 23:08 40.65928 -73.78637 24 ft 16 kts 208°
2026-05-06 23:08 40.65875 -73.78675 24 ft 0 kts 208°
2026-05-06 23:09 40.65874 -73.78675 24 ft 0 kts 208°
2026-05-06 23:09 40.65864 -73.78683 24 ft 6 kts 208°
2026-05-06 23:09 40.65787 -73.78722 24 ft 14 kts 171°
2026-05-06 23:10 40.65727 -73.78631 24 ft 13 kts 119°
2026-05-06 23:10 40.65671 -73.78511 24 ft 17 kts 121°
2026-05-06 23:10 40.65604 -73.78362 24 ft 20 kts 120°
2026-05-06 23:10 40.65525 -73.78188 24 ft 23 kts 120°
2026-05-06 23:11 40.65443 -73.78005 24 ft 23 kts 121°
2026-05-06 23:11 40.65352 -73.77803 24 ft 28 kts 121°
2026-05-06 23:11 40.65240 -73.77559 24 ft 33 kts 121°
2026-05-06 23:11 40.65121 -73.77296 24 ft 32 kts 121°
2026-05-06 23:12 40.65012 -73.77058 24 ft 29 kts 121°
2026-05-06 23:12 40.64916 -73.76846 24 ft 25 kts 121°
2026-05-06 23:12 40.64882 -73.76706 24 ft 11 kts 51°
2026-05-06 23:12 40.64957 -73.76646 24 ft 14 kts 29°
2026-05-06 23:13 40.65065 -73.76562 24 ft 22 kts 36°
2026-05-06 23:13 40.65076 -73.76429 24 ft 18 kts 118°
2026-05-06 23:13 40.64986 -73.76386 24 ft 16 kts 209°
2026-05-06 23:13 40.64970 -73.76399 24 ft 0 kts 210°
2026-05-06 23:14 40.64969 -73.76399 24 ft 2 kts 210°
2026-05-06 23:14 40.64760 -73.76561 24 ft 67 kts 211°
2026-05-06 23:14 40.64179 -73.77012 24 ft 124 kts 211°
2026-05-06 23:14 40.63294 -73.77699 32 ft 169 kts 210°
2026-05-06 23:15 40.62225 -73.78501 463 ft 173 kts 210°
2026-05-06 23:15 40.61221 -73.79258 1076 ft 173 kts 211°
2026-05-06 23:15 40.60135 -73.80061 1369 ft 185 kts 210°
2026-05-06 23:15 40.59009 -73.80888 1830 ft 186 kts 211°
2026-05-06 23:16 40.57792 -73.81532 2254 ft 192 kts 192°
2026-05-06 23:16 40.56420 -73.81358 2621 ft 207 kts 165°
2026-05-06 23:16 40.55171 -73.80309 2951 ft 225 kts 139°
2026-05-06 23:16 40.54282 -73.78506 3189 ft 248 kts 114°
2026-05-06 23:17 40.53818 -73.76289 3658 ft 253 kts 107°
2026-05-06 23:17 40.53402 -73.74056 4171 ft 254 kts 107°
2026-05-06 23:17 40.52974 -73.71789 4622 ft 257 kts 108°
2026-05-06 23:17 40.52527 -73.69458 5024 ft 264 kts 107°
2026-05-06 23:18 40.51998 -73.67151 5346 ft 268 kts 120°
2026-05-06 23:18 40.50932 -73.65167 5707 ft 264 kts 143°
2026-05-06 23:18 40.49417 -73.63879 6120 ft 257 kts 167°
2026-05-06 23:18 40.47666 -73.63429 6405 ft 256 kts 189°
2026-05-06 23:19 40.45953 -73.63902 6895 ft 246 kts 211°
2026-05-06 23:19 40.44384 -73.64785 7422 ft 250 kts 197°
2026-05-06 23:19 40.42604 -73.64755 7848 ft 269 kts 170°
2026-05-06 23:19 40.40899 -73.63594 8223 ft 290 kts 144°
2026-05-06 23:20 40.39569 -73.61501 8552 ft 305 kts 133°
2026-05-06 23:20 40.38152 -73.59398 8915 ft 306 kts 137°
2026-05-06 23:20 40.36809 -73.57229 9365 ft 311 kts 134°
2026-05-06 23:20 40.35465 -73.54958 9854 ft 313 kts 134°
2026-05-06 23:21 40.34136 -73.52697 10286 ft 315 kts 136°
2026-05-06 23:21 40.32539 -73.50841 10611 ft 303 kts 159°
2026-05-06 23:21 40.30742 -73.49321 10995 ft 314 kts 144°
2026-05-06 23:21 40.29270 -73.47163 11388 ft 320 kts 142°
2026-05-06 23:22 40.27494 -73.45475 11635 ft 307 kts 167°
2026-05-06 23:22 40.25463 -73.44908 11745 ft 300 kts 186°
2026-05-06 23:22 40.23299 -73.44589 11797 ft 325 kts 169°
2026-05-06 23:22 40.21225 -73.43155 12088 ft 348 kts 146°
2026-05-06 23:23 40.19565 -73.40785 12499 ft 358 kts 134°
2026-05-06 23:23 40.18035 -73.38191 12829 ft 361 kts 134°
2026-05-06 23:23 40.16479 -73.35586 13155 ft 364 kts 134°
2026-05-06 23:23 40.14923 -73.32962 13523 ft 364 kts 135°
2026-05-06 23:24 40.13092 -73.30642 13773 ft 353 kts 156°
2026-05-06 23:24 40.10875 -73.29437 14116 ft 334 kts 178°
2026-05-06 23:24 40.08588 -73.29421 14369 ft 319 kts 201°
2026-05-06 23:24 40.06577 -73.30563 14645 ft 306 kts 223°
2026-05-06 23:25 40.05180 -73.32593 14898 ft 301 kts 245°
2026-05-06 23:25 40.04582 -73.35159 15242 ft 296 kts 263°
2026-05-06 23:25 40.04434 -73.37853 15505 ft 296 kts 263°
2026-05-06 23:25 40.03802 -73.40448 15732 ft 302 kts 242°
2026-05-06 23:26 40.02375 -73.42525 16001 ft 313 kts 220°
2026-05-06 23:26 40.00429 -73.43935 16335 ft 319 kts 213°
2026-05-06 23:26 39.98416 -73.45201 16594 ft 320 kts 216°
2026-05-06 23:26 39.96715 -73.47005 16784 ft 311 kts 238°